Regional Weather Roundup
Issued by NWS Charleston, SC

Current Version | Previous Version | Graphics & Text | Print | Product List | Glossary On
Versions: 1 2 3 4 5 6 7 8 9 10 11 12 13 14 15 16 17 18 19 20 21 22 23 24 25 26 27 28 29 30 31 32 33 34 35 36 37 38 39 40 41 42 43 44 45 46 47 48 49 50
000 ASUS42 KCHS 290912 RWRCHS REGIONAL WEATHER ROUNDUP NATIONAL WEATHER SERVICE CHARLESTON SC 500 AM EDT WED MAR 29 2017 NOTE: "FAIR" INDICATES FEW OR NO CLOUDS BELOW 12,000 FEET WITH NO SIGNIFICANT WEATHER AND/OR OBSTRUCTIONS TO VISIBILITY. NOT ALL STATIONS ARE QUALITY CONTROLLED. USE DATA WITH CAUTION... ESPECIALLY DEWPOINT OBSERVATIONS. SCZ027-030-031-034>040-042>050-291000- ...SOUTHEAST SOUTH CAROLINA... CITY SKY/WX TMP DP RH WIND PRES REMARKS N CHARLESTON CLEAR 60 58 92 NW7 29.94S WATERFRONT PRK N/A 66 63 90 VRB3 29.92F JOHNS ISLAND FAIR 63 61 94 NW3 29.94S PINOPOLIS N/A 64 63 94 VRB3 29.85F MONCKS CORNER NOT AVBL SUMMERVILLE FAIR 59 59 100 N3 29.95S BEAUFORT MCAS CLEAR 64 62 93 CALM 29.94F BEAUFORT ARPT FAIR 64 61 88 W6 29.94S HILTON HEAD IS CLEAR 68 63 83 SW5 29.95S WALTERBORO SUNNY 59 59 100 N6 29.95S ALLENDALE FAIR 59 57 94 CALM 29.94S ...SOUTHERN MIDLANDS AND PEE DEE... CITY SKY/WX TMP DP RH WIND PRES REMARKS GEORGETOWN FAIR 57 55 94 CALM 29.95S KINGSTREE FAIR 55 54 94 CALM 29.96S ORANGEBURG CLEAR 58 55 90 CALM 29.96S BARNWELL FAIR 63 55 77 NE3 29.96S AIKEN FAIR 52 50 93 CALM 30.01R MANNING FAIR 57 52 82 CALM 29.96S COLUMBIA CLEAR 55 51 86 W3 29.97R SUMTER CLEAR 58 50 74 NE3 29.94F FLORENCE PTCLDY 59 53 80 N5 29.96S MYRTLE BEACH CLEAR 65 54 67 N8 29.95S N MYRTLE BEACH CLEAR 62 55 77 N5 29.93S $$ GAZ063-065-086>088-099>101-113>116-118-119-134>141-150-291000- ...SOUTHEAST GEORGIA... CITY SKY/WX TMP DP RH WIND PRES REMARKS SAVANNAH ARPT PTCLDY 64 58 80 W3 29.95F HUNTER AAF CLEAR 62 61 98 CALM 29.93S FORT STEWART CLEAR 59 57 91 CALM 29.94S STATESBORO CLEAR 59 59 100 CALM 29.96S SYLVANIA SUNNY N/A N/A N/A CALM 29.96S CLAXTON FAIR N/A N/A N/A CALM 29.96S ...CSRA...CENTRAL AND FAR SOUTHEAST GEORGIA... CITY SKY/WX TMP DP RH WIND PRES REMARKS THOMSON CLEAR 53 52 95 N3 30.03R AUGUSTA-BUSH CLEAR 57 54 89 NW3 29.96S AUGUSTA-DANIEL CLEAR 63 54 72 N5 29.98R SWAINSBORO FAIR 61 61 100 CALM 29.98R VIDALIA CLEAR 64 61 88 SW7 29.97S EASTMAN FAIR 62 62 98 CALM 29.99S HAZLEHURST FAIR 66 66 100 CALM 29.96F ALMA CLEAR 65 63 93 W3 29.97S WAYCROSS CLEAR 66 66 100 W5 29.97F JESUP FAIR 64 61 88 CALM 29.97R BAXLEY FAIR 63 63 100 CALM 29.97S FOG BRUNSWICK CLEAR 64 63 94 W3 29.97S SAINT SIMONS CLEAR 66 61 84 W6 29.96S $$ SCZ027-028-034-036>038-045-046-048>050-GAZ119-141-291000- ...LAKE AND SUPPLEMENTAL COASTAL OBSERVATIONS... STATION/POSITION TIME TEMP WIND PRES WAVE SWELL AIR SEA DIR/SP/G HT/PER HT/PER/DIR (UTC) (F) (DEG/KT/KT) (MB) (FT/S) (FT/S/D) WINYAH BAY NOT AVBL LAKE MURRAY 0820 61 CALM 1014.2 ACE BASIN NERRS 0745 65 CALM 1014.0 FORT PULASKI 0848 67 66 270/ 4/ 5 1014.3F SAPELO ISLAND 0800 66 CALM 1015.0 $$ ANZ835-935-AMZ111-154-330-350-352-354-370-450-454-472-291000- ...C-MAN AND BUOY OBSERVATIONS... STATION/POSITION TIME TEMP WIND PRES WAVE SWELL AIR SEA DIR/SP/G HT/PER HT/PER/DIR (UTC) (F) (DEG/KT/KT) (MB) (FT/S) (FT/S/D) BUOY 41004 0850 68 71 250/ 14/ 16 1012.8F 5/10 5/130/10 BUOY 41008 0850 67 65 250/ 6/ 8 1014.1F 3/10 3/ 90/10 FOLLY BEACH CMAN 0800 65 260/ 4/ 5 1014.2F CAPERS NEARSHORE NOT AVBL FRIPP NEARSHORE NOT AVBL STATION/POSITION TIME TEMP WIND PRES WAVE SWELL AIR SEA DIR/SP/G HT/PER HT/PER/DIR (UTC) (F) (DEG/KT/KT) (MB) (FT/S) (FT/S/D) 5E ST. MARYS GA 0830 68 N/A 3/10 2/130/11 FRYING PAN BUOY 0850 66 71 290/ 12/ 16 1013.0R 5/10 3/120/10 BUOY 41025 0850 66 73 340/ 14/ 17 1012.6R 5/10 3/130/10 CAPE LOOKOUT NC 0800 65 280/ 2/ 3 1012.5R BUOY 41002 0750 71 72 220/ 14/ 17 1014.0 6/10 5/ 90/10 BUOY 41010 NOT AVBL ST AUGUSTINE FL 0900 64 67 200/ 3/ 3 1016.1F $$

USA.gov is the U.S. government's official web portal to all federal, state and local government web resources and services.